Regional Weather Roundup
Issued by NWS

Home | Current Version | Previous Version | Text Only | Print | Product List | Glossary Off
Versions: 1 2 3 4 5 6 7 8 9 10 11 12 13 14 15 16 17 18 19 20 21 22 23 24 25 26 27 28 29 30 31 32 33 34 35 36 37 38 39 40 41 42 43 44 45 46 47 48 49 50

000
ASUS43 KLOT 220908
RWRIL

ILLINOIS REGIONAL WEATHER ROUNDUP
NATIONAL WEATHER SERVICE CHICAGO/ROMEOVILLE IL
400 AM CDT FRI SEP 22 2017

NOTE: "FAIR" INDICATES FEW OR NO CLOUDS BELOW 12,000 FEET WITH NO
SIGNIFICANT WEATHER AND/OR OBSTRUCTIONS TO VISIBILITY.

* THESE STATIONS ARE NOT UNDER NWS QUALITY CONTROL. THEY ALSO MAY NOT
  REPORT WEATHER SUCH AS PRECIPITATION OR FOG.

ILZ001-002-007-009-015-016-024-221000-
NORTHWEST ILLINOIS

CITY           SKY/WX    TMP DP  RH WIND       PRES   REMARKS
MOLINE         CLEAR     75  67  76 S5        29.99S
STERLING*      CLEAR     72  68  87 CALM      30.02R
SAVANNA*       CLEAR     69  67  92 CALM      30.01R
$$

ILZ003-004-008-010-011-017-018-221000-
NORTH CENTRAL ILLINOIS

CITY           SKY/WX    TMP DP  RH WIND       PRES   REMARKS
ROCKFORD       CLEAR     69  67  93 S5        30.03S
FREEPORT*      CLEAR     71  67  87 S8        30.03S
ROCHELLE*      CLEAR     65  65  98 CALM      30.04S FOG
DE KALB*       CLEAR     70  68  95 S7        30.06R
PERU*          CLOUDY    72  67  84 S8        30.04R
$$

ILZ005-006-012>014-019>023-221000-
NORTHEAST ILLINOIS

CITY           SKY/WX    TMP DP  RH WIND       PRES   REMARKS
CHICAGO-OHARE  CLOUDY    76  68  76 S6        30.04R
CHICAGO-MIDWAY CLOUDY    78  68  71 S5        30.04R HX  80
AURORA         CLOUDY    71  69  93 SE3       30.05R
LANSING*       CLEAR     71  68  90 CALM      30.06R
JOLIET*        CLOUDY    72  70  93 CALM      30.05R
WAUKEGAN       CLOUDY    70  70 100 CALM      30.03R FOG
DUPAGE AIRPORT CLOUDY    73  70  90 S5        30.04R
KANKAKEE*      CLOUDY    67  66  95 CALM      30.07R
WHEELING       CLOUDY    76  70  82 S6        30.04R
MORRIS*        MOCLDY    71  69  91 CALM      30.04R
ROMEOVILLE*    PTCLDY    71  68  91 S5        30.05R
NORTHERLY ISL    N/A     77  65  66 SW7         N/A
$$

LMZ740>746-221000-
SOUTHERN LAKE MICHIGAN

STATION/POSITION SKY/WX   TEMP    WIND        PRES    VSBY  WAVE
                          AIR SEA DIR/SP/G                  HT/PER
                          (F)     (DEG/KT/KT) (MB)    (MI)  (FT/S)
SOUTHERN BUOY              72 69  160/ 10/ 10 1016.8R         1
WILMETTE HARBOR            73 71  160/  8/  8   N/A           1/ 2
HARRISON CRIB              78     190/ 12/ 13   N/A
BURNHAM HARBOR             77                   N/A
CALUMET HARBOR             77     180/  5/  7 1016.8R
BURNS HARBOR               76     190/  8/  9 1017.9S
MICHIGAN CITY              78     160/  8/ 11   N/A
MICHIGAN CITY 6N           72 70  150/  4/  4   N/A
ST. JOSEPH                 72 70  190/  4/  4 1017.5          0
$$

ILZ025>027-034>036-040-047-049-050-058-095>099-221000-
WEST-CENTRAL ILLINOIS

CITY           SKY/WX    TMP DP  RH WIND       PRES   REMARKS
QUINCY         CLEAR     74  68  81 S7        30.01R
GALESBURG*     CLEAR     70  66  89 SE3       30.03R
MACOMB*        CLEAR     70  68  93 S6        30.03S
JACKSONVILLE*  CLEAR     73  67  82 SE7       30.03R
PITTSFIELD*    CLEAR     71  68  91 S3        30.04R
$$

ILZ028>032-037-038-041>044-048-051>054-059>061-221000-
CENTRAL ILLINOIS

CITY           SKY/WX    TMP DP  RH WIND       PRES   REMARKS
PONTIAC        PTCLDY    66  65  97 SE7       30.05R FOG
BLOOMINGTON    CLEAR     70  66  87 S8        30.06S
DECATUR        CLEAR     71  65  81 S5        30.05R
PEORIA         CLEAR     73  68  84 S5        30.03R
LACON*         CLEAR     72  68  87 S5        30.03R FOG
LINCOLN*       CLEAR     69  67  93 CALM      30.04S
SPRINGFIELD    CLEAR     74  68  81 S7        30.04R
TAYLORVILLE    CLEAR     69  66  89 CALM      30.05R
$$

ILZ033-039-045-046-055>057-062-063-221000-
EAST-CENTRAL ILLINOIS

CITY           SKY/WX    TMP DP  RH WIND       PRES   REMARKS
CHAMPAIGN      PTCLDY    68  64  87 S3        30.06R
RANTOUL*       CLOUDY    70  68  92 CALM      30.06S
MATTOON        CLEAR     72  69  90 S3        30.05S
PARIS*         CLOUDY    70  67  92 CALM      30.07S
$$

ILZ079-100>102-221000-
SOUTHWEST ILLINOIS

CITY           SKY/WX    TMP DP  RH WIND       PRES   REMARKS
ALTON          CLEAR     65  65 100 CALM      30.04R
CAHOKIA*       CLEAR     73  68  84 S3        30.02S
SPARTA*        CLEAR     68  67  97 CALM      30.05R
$$

ILZ064>066-069>071-074>076-080>082-084>086-088>090-092>094-221000-
SOUTH-CENTRAL ILLINOIS

CITY           SKY/WX    TMP DP  RH WIND       PRES   REMARKS
CARBONDALE     CLEAR     67  67 100 CALM      30.04R FOG
CAIRO*         FOG       67  67 100 CALM      30.04R VSB 1/2
EFFINGHAM*     CLEAR     68  67  98 CALM      30.07R
MARION         CLEAR     70  70 100 CALM      30.05R FOG
MT. VERNON       N/A     64  64 100 CALM      30.05S
CENTRALIA*     CLEAR     67  66  97 CALM      30.04S
SALEM*         CLEAR     69  66  90 CALM      30.05S FOG
METROPOLIS*    HVY RAIN  68  67  98 CALM      30.05R
$$

ILZ067-068-072-073-078-083-087-091-221000-
SOUTHEAST ILLINOIS

CITY           SKY/WX    TMP DP  RH WIND       PRES   REMARKS
LAWRENCEVILLE  CLEAR     70  69  97 CALM      30.06R
FLORA*         CLEAR     68  66  93 CALM      30.06R
FAIRFIELD*     CLEAR     67  66  96 CALM      30.05R
HARRISBURG*    CLEAR     68  67  99 CALM      30.05R FOG
ROBINSON*      PTCLDY    66  66  99 CALM      30.07R
CARMI*         PTCLDY    67  66  99 CALM      30.05R FOG
$$

ABBREVIATIONS USED IN REMARKS
   TC - TEMPERATURE IN CELSIUS
  WCI - WIND CHILL INDEX
   HX - HEAT INDEX
  VSB - VISIBILITY
$$





USA.gov is the U.S. government's official web portal to all federal, state and local government web resources and services.